When you browse on this site, cookies collect data to enhance your experience and personalize the content and advertising you see.
Visit our Privacy Policy to learn more. By continuing to use the site, you agree to this use of cookies and data.
  • In Hungary
  • List of Countries
  • For 7 days
  • Water Temperature
  • Weather Map
  • News
  • Weather Widgets
  • user-avatar
    Login

    Hourly Weather Stadtallendorf

    Today, 8 December, Sunday

    Time Temperature Precipitation Wind Pressure Humidity
    00:00 +3°C° 0 mm 4 mps 737 mmHg 92%
    01:00 +3°C° 0 mm 4 mps 737 mmHg 93%
    02:00 +3°C° 0 mm 5 mps 736 mmHg 92%
    03:00 +3°C° 0 mm 5 mps 735 mmHg 92%
    04:00 +3°C° 0 mm 6 mps 734 mmHg 91%
    05:00 +3°C° 0 mm 6 mps 733 mmHg 90%
    06:00 +4°C° 0 mm 6 mps 733 mmHg 88%
    07:00 +4°C° 0 mm 7 mps 733 mmHg 87%
    08:00 +5°C° 0 mm 7 mps 732 mmHg 86%
    09:00 +5°C° 0 mm 7 mps 731 mmHg 86%
    10:00 +6°C° 0 mm 8 mps 731 mmHg 85%
    11:00 +6°C° 0.8 mm 8 mps 730 mmHg 86%
    12:00 +6°C° 0.8 mm 8 mps 730 mmHg 88%
    13:00 +7°C° 0.8 mm 8 mps 729 mmHg 89%
    14:00 +7°C° 0.4 mm 8 mps 729 mmHg 89%
    15:00 +8°C° 0.4 mm 7 mps 729 mmHg 89%
    16:00 +9°C° 0.4 mm 7 mps 728 mmHg 89%
    17:00 +8°C° 0.5 mm 6 mps 728 mmHg 87%
    18:00 +7°C° 0.5 mm 5 mps 728 mmHg 85%
    19:00 +6°C° 0.5 mm 4 mps 728 mmHg 83%
    20:00 +6°C° 0 mm 5 mps 727 mmHg 83%
    21:00 +5°C° 0 mm 5 mps 727 mmHg 83%
    22:00 +5°C° 0 mm 5 mps 727 mmHg 83%
    23:00 +5°C° 0.1 mm 5 mps 727 mmHg 83%

    Tomorrow, 9 December, Monday

    Time Temperature Precipitation Wind Pressure Humidity
    00:00 +5°C° 0.1 mm 5 mps 727 mmHg 84%
    01:00 +3°C° 0.1 mm 6 mps 727 mmHg 84%
    02:00 +3°C° 0.1 mm 6 mps 726 mmHg 82%
    03:00 +3°C° 0.1 mm 6 mps 726 mmHg 81%
    04:00 +3°C° 0.1 mm 6 mps 725 mmHg 79%
    05:00 +3°C° 0.1 mm 6 mps 725 mmHg 81%
    06:00 +3°C° 0.1 mm 7 mps 724 mmHg 83%
    07:00 +2°C° 0.1 mm 8 mps 724 mmHg 85%
    08:00 +2°C° 0.2 mm 8 mps 724 mmHg 83%
    09:00 +2°C° 0.2 mm 8 mps 723 mmHg 82%
    10:00 +2°C° 0.2 mm 8 mps 723 mmHg 81%
    11:00 +3°C° 0.5 mm 7 mps 723 mmHg 84%
    12:00 +3°C° 0.5 mm 7 mps 723 mmHg 88%
    13:00 +3°C° 0.5 mm 7 mps 723 mmHg 91%
    14:00 +3°C° 0.4 mm 6 mps 724 mmHg 92%
    15:00 +3°C° 0.4 mm 6 mps 724 mmHg 92%
    16:00 +2°C° 0.4 mm 5 mps 725 mmHg 92%
    17:00 +2°C° 0.8 mm 6 mps 727 mmHg 91%
    18:00 +1°C° 0.8 mm 8 mps 729 mmHg 89%
    19:00 +1°C° 0.8 mm 9 mps 730 mmHg 87%
    20:00 0°C° 0.1 mm 7 mps 732 mmHg 85%
    21:00 +1°C° 0.1 mm 6 mps 734 mmHg 82%
    22:00 +1°C° 0.1 mm 5 mps 735 mmHg 79%
    23:00 0°C° 0 mm 4 mps 736 mmHg 81%

    Day after tomorrow, 10 December, Tuesday

    Time Temperature Precipitation Wind Pressure Humidity
    00:00 0°C° 0 mm 4 mps 737 mmHg 82%
    01:00 0°C° 0 mm 4 mps 739 mmHg 83%
    02:00 -1°C° 0 mm 4 mps 739 mmHg 85%
    03:00 -1°C° 0 mm 4 mps 740 mmHg 86%
    04:00 -1°C° 0 mm 4 mps 740 mmHg 87%
    05:00 -1°C° 0 mm 4 mps 741 mmHg 87%
    06:00 0°C° 0 mm 3 mps 741 mmHg 87%
    07:00 -1°C° 0 mm 3 mps 742 mmHg 88%
    08:00 0°C° 0 mm 3 mps 743 mmHg 86%
    09:00 0°C° 0 mm 3 mps 743 mmHg 85%
    10:00 0°C° 0 mm 4 mps 744 mmHg 84%
    11:00 +1°C° 0 mm 3 mps 744 mmHg 81%
    12:00 +2°C° 0 mm 3 mps 744 mmHg 78%
    13:00 +3°C° 0 mm 3 mps 744 mmHg 74%
    14:00 +2°C° 0 mm 3 mps 744 mmHg 78%
    15:00 +1°C° 0 mm 3 mps 743 mmHg 82%
    16:00 +2°C° 0 mm 2 mps 743 mmHg 85%
    17:00 0°C° 0 mm 3 mps 743 mmHg 86%
    18:00 0°C° 0 mm 3 mps 742 mmHg 87%
    19:00 -1°C° 0 mm 3 mps 742 mmHg 88%
    20:00 -1°C° 0 mm 3 mps 741 mmHg 87%
    21:00 -2°C° 0 mm 4 mps 741 mmHg 86%
    22:00 -2°C° 0 mm 4 mps 741 mmHg 85%
    23:00 -2°C° 0 mm 4 mps 740 mmHg 84%

    11 December, Wednesday

    Time Temperature Precipitation Wind Pressure Humidity
    00:00 -2°C° 0 mm 4 mps 739 mmHg 82%
    01:00 -2°C° 0 mm 4 mps 739 mmHg 81%
    02:00 -1°C° 0 mm 4 mps 738 mmHg 80%
    03:00 -1°C° 0 mm 4 mps 738 mmHg 79%
    04:00 -1°C° 0 mm 4 mps 737 mmHg 78%
    05:00 -1°C° 0.5 mm 4 mps 737 mmHg 82%
    06:00 -1°C° 0.5 mm 4 mps 736 mmHg 87%
    07:00 -1°C° 0.5 mm 4 mps 736 mmHg 91%
    08:00 -1°C° 0.2 mm 4 mps 735 mmHg 91%
    09:00 -1°C° 0.2 mm 4 mps 735 mmHg 91%
    10:00 -1°C° 0.2 mm 4 mps 735 mmHg 91%
    11:00 -1°C° 0.8 mm 4 mps 734 mmHg 92%
    12:00 -1°C° 0.8 mm 4 mps 733 mmHg 94%
    13:00 -1°C° 0.8 mm 4 mps 733 mmHg 95%
    14:00 -1°C° 1.2 mm 4 mps 732 mmHg 96%
    15:00 -1°C° 1.2 mm 4 mps 732 mmHg 97%
    16:00 -1°C° 1.2 mm 4 mps 731 mmHg 98%
    17:00 -1°C° 0.4 mm 4 mps 731 mmHg 97%
    18:00 0°C° 0.4 mm 4 mps 731 mmHg 97%
    19:00 +1°C° 0.4 mm 5 mps 732 mmHg 96%
    20:00 +1°C° 0 mm 5 mps 731 mmHg 95%
    21:00 0°C° 0 mm 5 mps 731 mmHg 93%
    22:00 0°C° 0 mm 5 mps 731 mmHg 91%
    23:00 0°C° 0.1 mm 5 mps 731 mmHg 93%

    12 December, Thursday

    Time Temperature Precipitation Wind Pressure Humidity
    00:00 0°C° 0.1 mm 5 mps 730 mmHg 94%
    01:00 -1°C° 0.1 mm 6 mps 730 mmHg 96%
    02:00 -1°C° 0.3 mm 6 mps 730 mmHg 95%
    03:00 -1°C° 0.3 mm 6 mps 730 mmHg 94%
    04:00 -1°C° 0.3 mm 6 mps 729 mmHg 93%
    05:00 0°C° 0.1 mm 5 mps 730 mmHg 92%
    06:00 -1°C° 0.1 mm 5 mps 731 mmHg 90%
    07:00 -1°C° 0.1 mm 4 mps 731 mmHg 89%
    08:00 -1°C° 0 mm 4 mps 732 mmHg 89%
    09:00 -1°C° 0 mm 5 mps 732 mmHg 88%
    10:00 -1°C° 0 mm 5 mps 733 mmHg 88%
    11:00 0°C° 0 mm 5 mps 733 mmHg 86%
    12:00 0°C° 0 mm 5 mps 733 mmHg 84%
    13:00 +1°C° 0 mm 6 mps 732 mmHg 82%
    14:00 -1°C° 0 mm 6 mps 732 mmHg 82%
    15:00 -1°C° 0 mm 6 mps 731 mmHg 82%
    16:00 -1°C° 0 mm 6 mps 731 mmHg 82%
    17:00 -1°C° 0 mm 6 mps 730 mmHg 83%
    18:00 -1°C° 0 mm 6 mps 729 mmHg 83%
    19:00 -1°C° 0 mm 7 mps 728 mmHg 83%
    20:00 -1°C° 0.6 mm 7 mps 726 mmHg 87%
    21:00 -1°C° 0.6 mm 8 mps 725 mmHg 91%
    22:00 -1°C° 0.6 mm 9 mps 724 mmHg 96%
    23:00 0°C° 0.6 mm 9 mps 722 mmHg 95%

    13 December, Friday

    Time Temperature Precipitation Wind Pressure Humidity
    00:00 0°C° 0.6 mm 9 mps 720 mmHg 93%
    01:00 +1°C° 0.6 mm 9 mps 718 mmHg 92%
    02:00 +2°C° 1.5 mm 9 mps 716 mmHg 92%
    03:00 +3°C° 1.5 mm 9 mps 714 mmHg 91%
    04:00 +5°C° 1.5 mm 9 mps 713 mmHg 91%
    05:00 +4°C° 1.5 mm 8 mps 713 mmHg 90%
    06:00 +4°C° 1.5 mm 7 mps 712 mmHg 90%
    07:00 +3°C° 1.5 mm 5 mps 712 mmHg 89%
    08:00 +3°C° 0.4 mm 5 mps 713 mmHg 86%
    09:00 +3°C° 0.4 mm 5 mps 714 mmHg 83%
    10:00 +2°C° 0.4 mm 6 mps 715 mmHg 81%
    11:00 +2°C° 0.1 mm 6 mps 715 mmHg 77%
    12:00 +3°C° 0.1 mm 7 mps 716 mmHg 74%
    13:00 +2°C° 0.1 mm 8 mps 716 mmHg 70%
    14:00 +2°C° 0.1 mm 7 mps 717 mmHg 72%
    15:00 +2°C° 0.1 mm 7 mps 717 mmHg 74%
    16:00 +2°C° 0.1 mm 6 mps 718 mmHg 75%
    17:00 +1°C° 0 mm 6 mps 719 mmHg 77%
    18:00 +1°C° 0 mm 6 mps 719 mmHg 78%
    19:00 +1°C° 0 mm 6 mps 720 mmHg 80%
    20:00 +1°C° 0 mm 6 mps 720 mmHg 80%
    21:00 +1°C° 0 mm 6 mps 721 mmHg 81%
    22:00 +1°C° 0 mm 6 mps 721 mmHg 81%
    23:00 +1°C° 0 mm 6 mps 722 mmHg 83%
    Show more